COSMOS 2251 DEB, 40236

Orbit data source: Space-Track

COSMOS 2251 DEB, 40236 is space debris in LEO originally from a launch on Wed, 16 Jun 1993 UTC launched from the Plesetsk Missile And Space Complex (PKMTR). The debris from Iridium 33, an American commercial communications satellite, has been tracked extensively since its accidental collision with the defunct Russian satellite Cosmos 2251 in 2009. This event, occurring at high speed in low Earth orbit (LEO), generated thousands of pieces of space debris, significantly increasing the risk of further collisions. The Iridium 33 debris cloud has impacted space traffic management and orbital debris mitigation strategies, making it a subject of ongoing study in space situational awareness.

Loading next visibility...
Identifier
40236, 1993-036BVR
Orbit
LEO
Country
Flag of CISCIS
Related business
Manufacturer
Unknown
Mission
Spacecraft
Bus & Motor
Unknown
Mass
Unknown
Launch date (UTC)
1993-06-16 (33 years ago)
Launch vehicle
Unknown
Launch site
Plesetsk Missile And Space Complex (PKMTR)
Object type
Payload
Rocket body
Debris
Shape & HBR
Unknown shape, 0.1 m
Radar Cross Section
Small (<0.1 m²)

Expand to show TLE details & history
Last TLE update: 2 weeks ago

TLE from 2 weeks ago
0 COSMOS 2251 DEB
1 40236U 93036BVR 26048.63227702  .00000698  00000-0  76930-3 0  9996
2 40236  73.5345  38.2846 0537923 272.5358  81.4287 13.24799143545104
Epoch: 2026-02-17T15:10Z
TLE epoch observation values (Epoch: 2026-02-17T15:10:28.734Z)
Latitude
-0.00006°
Longitude
23.05537°
Altitude
1,129.972 km
Speed
7.307 km/s
True Right ascension
02h 33m 08s
True Declination
0° 00' 00"
Sunlit
Object was in daylight at epoch
Visualization orbit readout
Latitude
Unknown
Longitude
Unknown
Altitude
Unknown
Speed
Unknown
Apparent Right ascension
Unknown
Apparent Declination
Unknown
Sunlit
N/A
Visualization observer readout
Local Sidereal Time
11:02:04
Azimuth
Unknown
Elevation
Unknown
Doppler factor
Unknown
Orbital elements
Apogee altitude
1,569.946 km
Perigee altitude
758.504 km
Semi-major axis
7,542.362 km
Eccentricity
0.05379
Inclination
73.5345°
RAAN
38.2846°
Arg. of periapsis
272.5358°
True anomaly
87.57386°
Mean anomaly
81.4287°
Eccentric anomaly
84.49656°
Mean motion
3.31346 °/min
Orbital period
108.65 mins
BSTAR
0.0007693
Loading maneuver chart data...
Computing Atmospheric mass density...

Documentation

Showing up to 5 results
|